Content
SEND FEEDBACK

Daily
Averages
Monthly
Summary
Grenada

SAINT GEORGE'S, GRENADA


Home > Caribbean > Grenada
Elevation: 23 feet     Latitude: 12 01N     Longitude: 061 48W

WEATHER
 
SELECT A DAY
Number of Records: 156,409;   Date Range: 6/30/96 - 10/1/14
 
SHARE

PRINT THIS DATA

[ ← Previous Day ]
WEATHER ALMANAC - SEPTEMBER 8, 2013
[ Next Day → ]
[ °C ]   °F
Weather ElementAverageHighLow
Temperature85.6 °F89.6 °F (11:00 am)80.6 °F (5:00 am)
Dewpoint77.2 °F78.8 °F (9:00 am)75.2 °F (6:00 am)
Humidity74.5 %89 % (5:00 am)63 % (11:00 am)
Barometer29.92 in29.98 in (10:00 am)29.86 in (4:00 pm)
Wind Speed14.2 mph20.7 mph (12:00 pm)
Weather ElementAverage
Visibility7.2 mi
Wind DirectionESE (117.4 °)

Weather ElementTotal
Precipitation---
Cooling Degree Days20.1 (Base 65)
Growing Degree Days35.1 (Base 50)
Averaged from 31 records on September 8, 2013
WEATHER CONDITIONS BREAKOUT
WIND DIRECTION BREAKOUT
WEATHER BY HOUR - SEPTEMBER 8, 2013
[ °C ]   °F
Local TimeTemperatureDewpointHumidityBarometerVisibilityWind DirectionWind SpeedGust SpeedPrecipitationEventsConditions
1:00 AM82.4 °F77.0 °F84 %29.92 in6.2 miEast (100°)9.2 mphPartly Cloudy
2:00 AM83.0 °F77.0 °F76 %29.92 in12.0 miESE (120°)11.5 mphWidespread Dust
2:00 AM84.2 °F77.0 °F79 %29.92 in6.2 miESE (120°)11.5 mphPartly Cloudy
3:00 AM84.2 °F77.0 °F79 %29.89 in6.2 miESE (110°)11.5 mphPartly Cloudy
4:00 AM84.2 °F77.0 °F79 %29.92 in6.2 miESE (110°)9.2 mphScattered Clouds
5:00 AM81.0 °F77.0 °F83 %29.93 in12.0 miSSE (150°)8.1 mphRainLight Rain Showers
5:00 AM80.6 °F77.0 °F89 %29.92 in6.2 miSSE (150°)8.1 mphScattered Clouds
6:00 AM80.6 °F75.2 °F84 %29.92 in6.2 miEast (90°)5.8 mphScattered Clouds
7:00 AM84.2 °F77.0 °F79 %29.95 in6.2 miESE (120°)9.2 mphScattered Clouds
8:00 AM87.0 °F78.0 °F67 %29.96 in9.0 miESE (120°)16.1 mphWidespread Dust
8:00 AM86.0 °F77.0 °F74 %29.95 in6.2 miESE (120°)16.1 mphPartly Cloudy
9:00 AM87.8 °F78.8 °F75 %29.95 in6.2 miESE (120°)17.3 mphScattered Clouds
10:00 AM87.8 °F78.8 °F75 %29.98 in6.2 miSE (130°)17.3 mphScattered Clouds
11:00 AM89.0 °F78.0 °F63 %29.96 in11.0 miSE (140°)16.1 mphWidespread Dust
11:00 AM89.6 °F78.8 °F70 %29.95 in6.2 miSE (140°)16.1 mphScattered Clouds
12:00 PM87.8 °F77.0 °F70 %29.95 in6.2 miESE (120°)20.7 mphScattered Clouds
1:00 PM87.8 °F77.0 °F70 %29.92 in6.2 miESE (120°)20.7 mphScattered Clouds
2:00 PM89.0 °F78.0 °F63 %29.90 in9.0 miSE (130°)17.3 mphWidespread Dust
2:00 PM89.6 °F78.8 °F70 %29.89 in6.2 miSE (130°)17.3 mphScattered Clouds
3:00 PM87.8 °F78.8 °F75 %29.89 in6.2 miSE (130°)19.6 mphScattered Clouds
4:00 PM89.6 °F77.0 °F66 %29.86 in6.2 miESE (120°)17.3 mphPartly Cloudy
5:00 PM87.0 °F77.0 °F66 %29.87 in9.0 miEast (100°)19.6 mphWidespread Dust
5:00 PM87.8 °F77.0 °F70 %29.86 in6.2 miEast (100°)19.6 mphPartly Cloudy
6:00 PM86.0 °F77.0 °F74 %29.86 in6.2 miEast (100°)15.0 mphPartly Cloudy
7:00 PM84.2 °F77.0 °F79 %29.89 in6.2 miESE (110°)15.0 mphPartly Cloudy
8:00 PM84.0 °F76.0 °F71 %29.91 in10.0 miESE (120°)10.4 mphWidespread Dust
8:00 PM84.2 °F77.0 °F79 %29.89 in6.2 miESE (120°)10.4 mphScattered Clouds
9:00 PM84.2 °F77.0 °F79 %29.92 in6.2 miESE (110°)17.3 mphScattered Clouds
10:00 PM84.2 °F77.0 °F79 %29.95 in6.2 miESE (110°)12.7 mphScattered Clouds
11:00 PM84.0 °F76.0 °F70 %29.94 in10.0 miEast (90°)12.7 mphWidespread Dust
11:00 PM84.2 °F75.2 °F74 %29.95 in6.2 miEast (90°)12.7 mphPartly Cloudy
Hourly data recorded from TGPY, located miles away from Saint George's, Grenada







STORIES FROM OUR PARTNERS